Home   Weather   Riga   Past weeks
Flag for Latvia

Past Weather in Riga, Latvia — Yesterday and Last 2 Weeks

Now
43 °F

Passing clouds.


Feels Like: 36 °F
Forecast: 44 / 33 °F
Wind: 13 mph from Northwest

Location: Riga Airport

Current Time: Mar 24, 2019 at 11:40:17 am

Latest Report: Mar 24, 2019 at 10:50 am


Visibility: N/A

Pressure: 30.01 "Hg

Humidity: 57%

Dew Point: 28 °F

Location of RigaLocation

Past Weather in Riga — Graph

°F

Riga Temperature Yesterday

Maximum temperature yesterday: 54 °F (at 1:50 pm)
Minimum temperature yesterday: 25 °F (at 3:20 am)
Average temperature yesterday: 40 °F

High & Low Weather Summary for the Past Weeks

 TemperatureHumidityPressure
High54 °F (Mar 23, 1:50 pm)100% (Mar 10, 3:20 pm)30.42 "Hg (Mar 10, 3:20 pm)
Low7 °F (Mar 13, 3:20 am)40% (Mar 23, 11:50 am)29.09 "Hg (Mar 16, 4:50 am)
Average36 °F85%29.74 "Hg
* Reported Mar 9 10:20 am — Mar 24 10:50 am, Riga. Weather by CustomWeather, © 2019

Note: Actual official high and low records may vary slightly from our data, if they occured in-between our weather recording intervals... More about our weather records

Advertising

Riga Weather History for the Previous 24 Hours

Scroll right to see more
 ConditionsComfort  
Time TempWeatherWind HumidityBarometerVisibility
10:50 am
Sun, Mar 24
43 °FPassing clouds.13 mph57%30.01 "HgN/A
10:20 am43 °FPassing clouds.10 mph61%30.01 "HgN/A
9:50 am41 °FPassing clouds.9 mph66%30.01 "HgN/A
9:20 am41 °FPassing clouds.9 mph66%30.01 "HgN/A
8:50 am41 °FPassing clouds.10 mph70%30.01 "HgN/A
8:20 am39 °FSunny.7 mph75%30.01 "Hg10 mi
7:50 am37 °FPassing clouds.7 mph81%30.01 "HgN/A
7:20 am36 °FPassing clouds.6 mph81%30.01 "HgN/A
6:50 am36 °FPassing clouds.6 mph81%30.01 "HgN/A
6:20 am34 °FSunny.5 mph87%29.98 "Hg10 mi
5:50 am36 °FPassing clouds.6 mph81%29.98 "HgN/A
5:20 am36 °FPassing clouds.5 mph81%29.98 "HgN/A
4:50 am36 °FPassing clouds.6 mph81%29.98 "HgN/A
4:20 am36 °FPassing clouds.5 mph81%29.98 "HgN/A
3:50 am36 °FPassing clouds.5 mph81%29.98 "HgN/A
3:20 am36 °FClear.6 mph81%29.98 "Hg10 mi
2:50 am37 °FPassing clouds.5 mph81%29.98 "HgN/A
2:20 am37 °FPassing clouds.5 mph81%29.98 "HgN/A
1:50 am39 °FPassing clouds.6 mph81%29.98 "HgN/A
1:20 am39 °FPassing clouds.6 mph81%29.98 "HgN/A
12:50 am39 °FPassing clouds.6 mph87%29.98 "HgN/A
12:20 am41 °FPassing clouds.7 mph87%29.98 "HgN/A
11:50 pm
Sat, Mar 23
41 °FPassing clouds.6 mph87%29.98 "HgN/A
11:20 pm41 °FPassing clouds.6 mph93%29.98 "HgN/A
10:50 pm43 °FPassing clouds.6 mph87%30.01 "HgN/A
10:20 pm43 °FPassing clouds.7 mph87%30.01 "HgN/A
9:50 pm45 °FOvercast.7 mph87%30.01 "HgN/A
9:20 pm45 °FPassing clouds.7 mph87%30.01 "HgN/A
8:50 pm45 °FOvercast.7 mph93%30.01 "HgN/A
8:20 pm45 °FOvercast.8 mph93%30.01 "HgN/A
7:50 pm45 °FOvercast.9 mph87%30.01 "HgN/A
7:20 pm45 °FLight rain. Overcast.9 mph87%30.01 "HgN/A
6:50 pm46 °FOvercast.10 mph82%30.01 "HgN/A
6:20 pm46 °FOvercast.12 mph82%30.01 "HgN/A
5:50 pm46 °FOvercast.12 mph76%30.04 "HgN/A
5:20 pm46 °FOvercast.12 mph76%30.04 "HgN/A
4:50 pm48 °FOvercast.15 mph71%30.07 "HgN/A
4:20 pm48 °FOvercast.16 mph76%30.07 "HgN/A
3:50 pm48 °FOvercast.17 mph71%30.07 "HgN/A
3:20 pm50 °FOvercast.15 mph67%30.09 "HgN/A
2:50 pm52 °FOvercast.17 mph62%30.09 "HgN/A
2:20 pm52 °FPartly sunny.20 mph58%30.09 "HgN/A
1:50 pm54 °FPassing clouds.17 mph47%30.12 "HgN/A
1:20 pm52 °FScattered clouds.16 mph47%30.12 "HgN/A
12:50 pm52 °FScattered clouds.17 mph41%30.15 "HgN/A
12:20 pm50 °FPartly sunny.17 mph40%30.15 "HgN/A
11:50 am48 °FPartly sunny.17 mph40%30.18 "HgN/A
11:20 am45 °FOvercast.14 mph46%30.21 "HgN/A
Weather by CustomWeather, © 2019

See weather overview